User: anonymous   Login
Location: Beaurevoir
(49.9971°N, 3.3085°E)
Time: 13:21:48
(UTC+00:00)
Language:

Cosmos 1400 Rocket - Orbit

View from above orbital plane
View from above orbital plane
View from above satellite
View from above satellite

Ground track
Ground track

The orbit data is extracted from the following two-line orbital elements,

1 13403U 82079B   24205.85028503  .00009506  00000-0  50255-3 0  9991
2 13403  81.1511 169.5672 0029595   7.9902 352.1791 15.14979007287461
Epoch (UTC): 23 July 2024 20:24:24
Eccentricity: 0.0029595
inclination: 81.1511°
perigee height: 500 km
apogee height: 541 km
right ascension of ascending node: 169.5672°
argument of perigee: 7.9902°
revolutions per day: 15.14979007
mean anomaly at epoch: 352.1791°
orbit number at epoch: 28746

The dashed part of the orbit path shows where the satellite is in the earth's shadow,  

DLR